FGDID LFPN-LFPN

Flight info

Callsign FGDID
Flight time 0h 6m
Altitude 4000
Route IN07L
Aircraft C152/L-SFG/C

Departure

Time 2026-04-14 20:02
Airport Toussus-le-Noble Airport (LFPN)

Arrival

Time 2026-04-14 20:08
Airport Toussus-le-Noble Airport (LFPN)
Time Latitude Longitude Altitude Speed Heading
2026-04-14 18:52 48.75129 2.11218 503 ft 0 kts 340°
2026-04-14 19:22 48.75130 2.11217 503 ft 0 kts 340°
2026-04-14 19:25 48.75129 2.11218 503 ft 0 kts 340°
2026-04-14 19:26 48.75133 2.11216 503 ft 0 kts 339°
2026-04-14 19:54 48.75174 2.11306 500 ft 15 kts 84°
2026-04-14 19:54 48.75178 2.11350 499 ft 14 kts 76°
2026-04-14 19:55 48.75212 2.11493 499 ft 13 kts 71°
2026-04-14 19:55 48.75268 2.11581 499 ft 11 kts 15°
2026-04-14 19:55 48.75321 2.11573 499 ft 0 kts 336°
2026-04-14 19:56 48.75322 2.11572 499 ft 1 kts 332°
2026-04-14 19:56 48.75375 2.11480 499 ft 20 kts 293°
2026-04-14 19:57 48.75384 2.11431 499 ft 0 kts 281°
2026-04-14 20:00 48.75392 2.11384 499 ft 11 kts 286°
2026-04-14 20:01 48.75424 2.11257 498 ft 11 kts 291°
2026-04-14 20:01 48.75403 2.11127 501 ft 36 kts 251°
2026-04-14 20:01 48.75257 2.10475 593 ft 80 kts 252°
2026-04-14 20:01 48.75078 2.09661 842 ft 84 kts 252°
2026-04-14 20:02 48.74907 2.08836 1140 ft 81 kts 252°
2026-04-14 20:02 48.74746 2.08044 1439 ft 78 kts 253°
2026-04-14 20:02 48.74575 2.07232 1647 ft 85 kts 251°
2026-04-14 20:02 48.74373 2.06355 1642 ft 91 kts 249°
2026-04-14 20:03 48.74103 2.05480 1622 ft 94 kts 241°
2026-04-14 20:03 48.73765 2.04642 1635 ft 92 kts 236°
2026-04-14 20:03 48.73367 2.03890 1643 ft 91 kts 216°
2026-04-14 20:03 48.72769 2.03727 1665 ft 91 kts 165°
2026-04-14 20:04 48.72206 2.04178 1653 ft 90 kts 136°
2026-04-14 20:04 48.72106 2.05087 1606 ft 94 kts 77°
2026-04-14 20:04 48.72288 2.06052 1529 ft 96 kts 73°
2026-04-14 20:04 48.72497 2.07002 1533 ft 93 kts 71°
2026-04-14 20:05 48.72706 2.07902 1573 ft 90 kts 70°
2026-04-14 20:05 48.72933 2.08779 1610 ft 89 kts 68°
2026-04-14 20:05 48.73181 2.09667 1584 ft 93 kts 62°
2026-04-14 20:05 48.73433 2.10572 1547 ft 94 kts 72°
2026-04-14 20:06 48.73638 2.11519 1533 ft 94 kts 69°
2026-04-14 20:06 48.73850 2.12458 1475 ft 91 kts 71°
2026-04-14 20:06 48.74043 2.13326 1371 ft 82 kts 67°
2026-04-14 20:06 48.74350 2.13930 1329 ft 69 kts 12°
2026-04-14 20:07 48.74833 2.13689 1177 ft 81 kts 331°
2026-04-14 20:07 48.75328 2.13270 977 ft 82 kts 327°
2026-04-14 20:07 48.75719 2.12703 839 ft 70 kts 286°
2026-04-14 20:07 48.75609 2.12032 674 ft 63 kts 251°
2026-04-14 20:08 48.75462 2.11395 553 ft 64 kts 250°
2026-04-14 20:08 48.75334 2.10821 510 ft 45 kts 251°
2026-04-14 20:08 48.75215 2.10305 556 ft 72 kts 251°
2026-04-14 20:08 48.75142 2.09969 667 ft 75 kts 248°
2026-04-14 20:09 48.74959 2.09238 938 ft 76 kts 250°
2026-04-14 20:09 48.74761 2.08432 1118 ft 87 kts 248°
2026-04-14 20:09 48.74557 2.07607 1426 ft 81 kts 251°
2026-04-14 20:09 48.74394 2.06795 1679 ft 85 kts 253°
2026-04-14 20:10 48.74203 2.05912 1696 ft 91 kts 248°
2026-04-14 20:10 48.73736 2.05356 1722 ft 91 kts 188°
2026-04-14 20:10 48.73124 2.05662 1641 ft 95 kts 144°
2026-04-14 20:10 48.72673 2.06327 1690 ft 88 kts 111°
2026-04-14 20:11 48.72779 2.07260 1617 ft 95 kts 70°
2026-04-14 20:11 48.72997 2.08196 1570 ft 95 kts 71°
2026-04-14 20:11 48.73188 2.09150 1549 ft 94 kts 70°
2026-04-14 20:11 48.73434 2.10073 1524 ft 94 kts 65°
2026-04-14 20:12 48.73667 2.10994 1505 ft 92 kts 71°
2026-04-14 20:12 48.73837 2.11904 1380 ft 88 kts 77°
2026-04-14 20:12 48.73984 2.12796 1243 ft 87 kts 74°
2026-04-14 20:12 48.74210 2.13626 1138 ft 80 kts 51°
2026-04-14 20:13 48.74686 2.13886 1138 ft 78 kts 350°
2026-04-14 20:13 48.75229 2.13638 1014 ft 81 kts 338°
2026-04-14 20:13 48.75683 2.13210 884 ft 71 kts 307°
2026-04-14 20:13 48.75737 2.12527 742 ft 67 kts 250°
2026-04-14 20:14 48.75587 2.11906 627 ft 63 kts 249°
2026-04-14 20:14 48.75446 2.11308 539 ft 60 kts 249°
2026-04-14 20:14 48.75323 2.10770 512 ft 41 kts 252°
2026-04-14 20:14 48.75194 2.10178 629 ft 72 kts 253°
2026-04-14 20:15 48.75053 2.09429 896 ft 75 kts 253°
2026-04-14 20:15 48.74858 2.08691 1161 ft 79 kts 244°
2026-04-14 20:15 48.74626 2.07918 1431 ft 80 kts 246°
2026-04-14 20:15 48.74342 2.07185 1611 ft 81 kts 213°
2026-04-14 20:16 48.73808 2.07286 1626 ft 87 kts 142°
2026-04-14 20:16 48.73424 2.08026 1587 ft 92 kts 123°
2026-04-14 20:16 48.73105 2.08847 1587 ft 91 kts 118°
2026-04-14 20:16 48.72815 2.09733 3503 ft 97 kts 117°
2026-04-14 20:17 48.72588 2.10715 3370 ft 96 kts 102°
2026-04-14 20:17 48.72274 2.11483 3366 ft 90 kts 166°
2026-04-14 20:17 48.71823 2.10965 3332 ft 90 kts 264°
2026-04-14 20:17 48.72157 2.10284 3312 ft 91 kts 354°
2026-04-14 20:18 48.72605 2.10841 3276 ft 91 kts 80°
2026-04-14 20:18 48.72215 2.11266 3197 ft 93 kts 222°
2026-04-14 20:18 48.72422 2.10597 3149 ft 93 kts
2026-04-14 20:18 48.72640 2.11397 3015 ft 98 kts 117°
2026-04-14 20:19 48.72076 2.12039 2798 ft 78 kts 158°
2026-04-14 20:19 48.71762 2.12227 2695 ft 95 kts 159°
2026-04-14 20:19 48.71319 2.12415 3166 ft 36 kts 174°
2026-04-14 20:19 48.71078 2.12585 3245 ft 30 kts 64°
2026-04-14 20:20 48.71531 2.12449 2952 ft 25 kts 354°
2026-04-14 20:20 48.71948 2.12236 2502 ft 94 kts 346°
2026-04-14 20:20 48.72531 2.12652 2062 ft 97 kts 50°
2026-04-14 20:20 48.72943 2.13377 1707 ft 89 kts 43°
2026-04-14 20:21 48.73450 2.13767 1470 ft 77 kts
2026-04-14 20:21 48.73806 2.13719 1291 ft 78 kts 348°
2026-04-14 20:21 48.74293 2.13552 1156 ft 70 kts 348°
2026-04-14 20:21 48.74759 2.13362 1079 ft 69 kts 341°
2026-04-14 20:22 48.75214 2.13077 892 ft 69 kts 335°
2026-04-14 20:22 48.75592 2.12693 769 ft 61 kts 306°
2026-04-14 20:22 48.75642 2.12136 663 ft 53 kts 251°
2026-04-14 20:22 48.75510 2.11582 581 ft 59 kts 251°
2026-04-14 20:23 48.75372 2.10992 516 ft 59 kts 251°
2026-04-14 20:23 48.75274 2.10554 518 ft 29 kts 251°
2026-04-14 20:23 48.75222 2.10322 525 ft 19 kts 251°
2026-04-14 20:23 48.75186 2.10170 530 ft 12 kts 250°
2026-04-14 20:24 48.75160 2.10064 532 ft 10 kts 255°
2026-04-14 20:24 48.75142 2.09974 533 ft 8 kts 251°
2026-04-14 20:24 48.75123 2.09899 534 ft 7 kts 220°
2026-04-14 20:24 48.75087 2.09892 534 ft 0 kts 197°